Find Starlink 30160

NORAD ID: 57441 Int'l Des: 2023-105 Owner: SPXS Country: US Constellation: starlink operational
LEOCIRCULAR

Live-Position

3D-Globus wird geladen...

Über Starlink 30160

Beschreibung wird geladen...

Nächste Überflüge

Passes for default location (London). Set your location on the main map for personalized predictions.

Höhenverlauf

Loading altitude history...

Zweizeiliger Elementsatz

1 57441U 23105M 26125.52011964 .00003191 00000-0 12539-3 0 9993
2 57441 42.9988 305.6892 0001029 275.6088 84.4646 15.27589593154033
Epoch: 5. Mai 2026 • Age: 13 hours

Aktueller Status

Höhe 488.3 km
Geschwindigkeit 7.62 km/s
Subsatellitenpunkt -23.34°S, 103.66°W
Startdatum 24. Juli 2023
Alter 2.7 years
Typ internet

Technische Details

Klassifizierung Payload
Masse 730.00 kg
Trockenmasse 700.00 kg
Gesamtmasse 730.00 kg
Länge 0.30 m
Durchmesser 4.10 m
Spannweite 29.00 m
Form Box + pan
Hersteller SPXS
Bus-Typ Starlink V2M
Phasenstatus In Orbit
Besitzer/Staat SPXS/US

Most Searched